Tracking 19854 objects as of 22-Sep-2019
HD Live streaming from Space Station
objects crossing your sky now

FENGYUN 1C DEB

Track FENGYUN 1C DEB now!
10-day predictions


NORAD ID: 32350
Int'l Code: 1999-025CYT
Perigee: 548.4 km
Apogee: 1,005.4 km
Inclination: 98.5 °
Period: 100.2 minutes
Semi major axis: 7147 km
RCS: 0.0139 m2 (small)
Launch date: May 10, 1999
Source: People's Republic of China (PRC)
Launch site: Taiyaun Space Center, China (TSC)

Note: This is SATELLITE DEBRIS
aabbcc
Your satellite tracking list
Your tracking list is empty




NASA's NSSDC Master Catalog

Two Line Element Set (TLE):
1 32350U 99025CYT 19263.33197802  .00000157  00000-0  41913-4 0  9997
2 32350  98.5388 316.2828 0319620 318.5424  39.1905 14.36600726647586
Source of the keplerian elements: AFSPC